[[{"header":{"parameterUnit":"m.s-1","parameterCategory":1,"la1":30.2991,"la2":30.254,"lo1":-89.0895,"lo2":-89.0444,"dy":0.0017,"dx":0.0017,"nx":28,"ny":28,"refTime":"2024-04-25T21:00:00:Z","depth":0,"parameterNumber":2,"parameterNumberName":"U-component_of_WINDS"},"data":[0,0,0,0,0,0,0,0,0,0,0,0,0,0,0,0,0,0,0,0,0,0,0,0,0,0,0,0,0,0,0,0,0,0,0,0,0,0,0,0,0,0,0,0,0,0,0,0,0,0,0,0,0,0,0,0,0,0,-0.3051,-0.305,0,-0.2909,-0.2907,-0.2905,-0.2834,-0.2834,-0.2834,-0.2834,-0.2686,-0.2683,-0.2679,0,0,0,0,0,0,0,0,0,0,0,0,0,-0.3262,-0.3258,-0.3051,-0.3049,-0.3048,-0.2909,-0.2907,-0.2905,-0.2834,-0.2834,-0.2834,-0.2834,-0.2688,-0.2683,-0.2678,0,0,0,0,0,0,0,0,0,0,0,0,0,-0.315,-0.3257,-0.3051,-0.2996,-0.2989,-0.2909,-0.2907,-0.2904,-0.2834,-0.2834,-0.2834,-0.2834,-0.2689,-0.2683,-0.2678,-0.2642,0,0,-0.266,-0.2657,0,0,0,0,0,0,0,0,-0.3156,-0.3142,-0.3006,-0.2999,-0.2992,-0.2889,-0.2927,-0.2816,-0.2834,-0.2893,-0.2834,-0.2834,-0.2754,-0.2743,-0.2716,-0.2635,-0.2629,-0.2659,-0.2656,-0.2653,-0.2652,0,0,0,0,0,0,0,-0.3164,-0.3148,-0.2995,-0.3004,-0.2995,-0.2978,-0.2962,-0.2906,-0.2825,-0.2888,-0.2882,-0.2866,-0.275,-0.2722,-0.2712,-0.2627,-0.2659,-0.2654,-0.2651,-0.2648,-0.2511,-0.2511,0,0,0,0,0,0,-0.3181,-0.3155,-0.2999,-0.299,-0.3076,-0.2974,-0.2956,-0.2922,-0.2826,-0.2811,-0.2867,-0.2864,-0.2732,-0.2719,-0.2706,-0.2659,-0.2653,-0.2648,-0.2644,-0.2511,-0.2511,-0.2511,0,0,0,0,0,0,-0.3186,-0.3168,-0.3005,-0.3071,-0.3049,-0.297,-0.2933,-0.2919,-0.2891,-0.281,-0.2795,-0.2852,-0.2731,-0.2715,-0.2659,-0.2653,-0.2645,-0.264,-0.2511,-0.2511,-0.2511,-0.2564,0,0,0,0,0,0,-0.3192,-0.317,-0.3156,-0.3071,-0.3046,-0.296,-0.2932,-0.2917,-0.2881,-0.2876,-0.2792,-0.2779,-0.273,-0.2668,-0.2653,-0.2645,-0.2635,-0.2512,-0.2511,-0.2511,-0.2563,-0.2566,-0.2569,0,0,0,0,0,-0.32,-0.3176,-0.3155,-0.3137,-0.3026,-0.296,-0.2945,-0.289,-0.2881,-0.2866,-0.2814,-0.2781,-0.2656,-0.2663,-0.2646,-0.2635,-0.2512,-0.2511,-0.2511,-0.2561,-0.2565,-0.2568,0,0,0,0,0,0,-0.326,-0.3163,-0.314,-0.3087,-0.3033,-0.2948,-0.2927,-0.2896,-0.2842,-0.2839,-0.2773,-0.2755,-0.2706,-0.2665,-0.2674,-0.2597,-0.2581,-0.2577,-0.2625,-0.2628,-0.2631,-0.2642,-0.263,0,0,0,0,0,-0.3268,-0.3222,-0.314,-0.3102,-0.3075,-0.3007,-0.2976,-0.2938,-0.2878,-0.2855,-0.2798,-0.2742,-0.269,-0.2656,-0.2604,-0.2557,-0.2538,-0.2541,-0.2544,-0.2547,-0.2544,-0.2517,-0.2518,-0.251,-0.251,-0.251,0,0,-0.3282,-0.3223,-0.3198,-0.3112,-0.3065,-0.302,-0.2987,-0.294,-0.2906,-0.2847,-0.2792,-0.2749,-0.2681,-0.263,-0.2604,-0.2594,-0.2543,-0.2547,-0.255,-0.2545,-0.2517,-0.2518,-0.2519,-0.251,-0.251,-0.251,0,0,-0.3285,-0.3236,-0.3199,-0.3153,-0.3083,-0.3038,-0.3029,-0.295,-0.2919,-0.2863,-0.2818,-0.2777,-0.2688,-0.2642,-0.2607,-0.2595,-0.2563,-0.258,-0.2595,-0.2569,-0.257,-0.257,-0.2566,-0.2566,-0.2577,-0.2577,-0.2578,0,-0.3311,-0.3241,-0.3184,-0.314,-0.3103,-0.305,-0.3012,-0.297,-0.2887,-0.2863,-0.2853,-0.2742,-0.2693,-0.263,-0.2628,-0.2601,-0.259,-0.2588,-0.2575,-0.2574,-0.2574,-0.2569,-0.2568,-0.258,-0.258,-0.2579,-0.2579,0,-0.3277,-0.3229,-0.3208,-0.313,-0.3091,-0.3051,-0.2988,-0.2956,-0.2922,-0.2878,-0.2822,-0.2761,-0.2696,-0.2679,-0.2645,-0.2612,-0.2608,-0.2588,-0.257,-0.2578,-0.2573,-0.2571,-0.2584,-0.2583,-0.2582,-0.2581,0,0,-0.3312,-0.3204,-0.3197,-0.3162,-0.3082,-0.3044,-0.3001,-0.2938,-0.2913,-0.2857,-0.282,-0.2748,-0.2729,-0.2689,-0.265,-0.2628,-0.2623,-0.261,-0.2607,-0.2615,-0.2584,-0.26,-0.2599,-0.2602,-0.2601,-0.2601,-0.259,0,-0.3304,-0.3225,-0.3174,-0.3116,-0.3072,-0.3021,-0.2984,-0.2931,-0.2889,-0.2846,-0.2799,-0.2749,-0.2728,-0.2704,-0.2679,-0.2629,-0.2616,-0.2629,-0.2567,-0.2565,-0.2585,-0.2596,-0.2612,-0.2605,-0.2588,-0.2587,-0.2587,0,-0.3283,-0.323,-0.3168,-0.3094,-0.3074,-0.3042,-0.2981,-0.294,-0.2879,-0.285,-0.2808,-0.2768,-0.2722,-0.271,-0.2645,-0.2655,-0.2627,-0.2599,-0.2597,-0.2589,-0.2576,-0.2588,-0.2601,-0.26,-0.2583,-0.2583,-0.2584,0,-0.3315,-0.3229,-0.3181,-0.3152,-0.3064,-0.3043,-0.3006,-0.2945,-0.2911,-0.2858,-0.2836,-0.2778,-0.2746,-0.2702,-0.2649,-0.2645,-0.259,-0.2573,-0.2565,-0.2566,-0.2555,-0.2556,-0.2563,-0.2537,-0.2537,-0.2537,-0.2537,0,-0.3311,-0.3275,-0.3194,-0.3165,-0.3123,-0.3065,-0.3026,-0.2984,-0.2931,-0.2893,-0.2846,-0.2811,-0.2742,-0.2699,-0.2657,-0.2611,-0.2596,-0.2572,-0.2561,-0.2576,-0.2579,-0.2556,-0.2555,-0.2537,-0.2537,-0.2537,-0.2537,0,-0.3339,-0.3284,-0.3228,-0.3151,-0.313,-0.3104,-0.3037,-0.3007,-0.2964,-0.2916,-0.2901,-0.2833,-0.278,-0.2723,-0.265,-0.2622,-0.2578,-0.2562,-0.2598,-0.2592,-0.2588,-0.2589,-0.258,-0.2576,-0.2553,-0.2553,-0.2554,0,-0.334,-0.3311,-0.3231,-0.3203,-0.3167,-0.3121,-0.3087,-0.3029,-0.2995,-0.2925,-0.2904,-0.2848,-0.2799,-0.2717,-0.2661,-0.2606,-0.2589,-0.2589,-0.258,-0.2596,-0.2589,-0.2591,-0.2589,-0.2592,-0.2593,-0.2593,-0.2594,0,-0.3347,-0.3322,-0.3274,-0.3218,-0.3179,-0.3131,-0.3082,-0.3061,-0.2993,-0.2958,-0.2904,-0.2867,-0.2794,-0.2739,-0.2677,-0.2638,-0.2605,-0.2597,-0.2593,-0.2607,-0.263,-0.2618,-0.2606,-0.2597,-0.2597,-0.2597,-0.2597,-0.2596,-0.3362,-0.3335,-0.3275,-0.3224,-0.3181,-0.3137,-0.3105,-0.3058,-0.3012,-0.2949,-0.2917,-0.2864,-0.2805,-0.2719,-0.2682,-0.2639,-0.2629,-0.2622,-0.262,-0.2619,-0.2623,-0.2637,-0.2628,-0.2627,-0.2627,-0.2627,-0.2627,0,-0.3367,-0.3326,-0.328,-0.3214,-0.3174,-0.3147,-0.3092,-0.306,-0.3014,-0.2963,-0.2917,-0.2856,-0.2803,-0.2743,-0.2687,-0.2664,-0.2648,-0.2651,-0.2652,-0.2644,-0.2636,-0.2646,-0.2666,-0.2666,-0.2666,-0.2666,-0.2666,-0.2666,-0.3365,-0.3318,-0.3286,-0.3218,-0.3177,-0.3125,-0.3096,-0.3055,-0.3014,-0.2948,-0.2904,-0.2866,-0.2811,-0.2751,-0.2701,-0.2685,-0.2667,-0.2675,-0.2655,-0.2648,-0.2645,-0.2641,-0.265,-0.2672,-0.2672,-0.2667,-0.2667,-0.2667]},{"header":{"parameterUnit":"m.s-1","parameterCategory":1,"la1":30.2991,"la2":30.254,"lo1":-89.0895,"lo2":-89.0444,"dy":0.0017,"dx":0.0017,"nx":28,"ny":28,"refTime":"2024-04-25T21:00:00:Z","depth":0,"parameterNumber":3,"parameterNumberName":"V-component_of_WINDS"},"data":[0,0,0,0,0,0,0,0,0,0,0,0,0,0,0,0,0,0,0,0,0,0,0,0,0,0,0,0,0,0,0,0,0,0,0,0,0,0,0,0,0,0,0,0,0,0,0,0,0,0,0,0,0,0,0,0,0,0,3.9625,3.9625,0,3.9558,3.9557,3.9556,3.9554,3.9554,3.9555,3.9556,3.9479,3.9477,3.9474,0,0,0,0,0,0,0,0,0,0,0,0,0,3.9746,3.9744,3.9625,3.9625,3.9624,3.9558,3.9557,3.9556,3.9553,3.9554,3.9555,3.9556,3.948,3.9477,3.9473,0,0,0,0,0,0,0,0,0,0,0,0,0,3.9687,3.9743,3.9625,3.9615,3.9613,3.9558,3.9557,3.9556,3.9553,3.9554,3.9556,3.9557,3.9481,3.9477,3.9473,3.9422,0,0,3.946,3.9458,0,0,0,0,0,0,0,0,3.9691,3.9683,3.9617,3.9615,3.9613,3.9566,3.9571,3.9511,3.9553,3.9576,3.9556,3.9557,3.9506,3.95,3.9485,3.9418,3.9415,3.946,3.9457,3.9455,3.9454,0,0,0,0,0,0,0,3.9695,3.9686,3.9598,3.9616,3.9614,3.9611,3.9604,3.956,3.9535,3.9574,3.9573,3.9566,3.9506,3.9489,3.9483,3.9414,3.946,3.9456,3.9453,3.9452,3.9304,3.9302,0,0,0,0,0,0,3.9702,3.9689,3.9601,3.9596,3.9656,3.9608,3.96,3.9579,3.9535,3.953,3.9565,3.9566,3.9495,3.9488,3.948,3.9418,3.9455,3.9451,3.9449,3.9305,3.9303,3.9302,0,0,0,0,0,0,3.9704,3.9694,3.9603,3.9643,3.9631,3.9605,3.9581,3.9577,3.9561,3.9529,3.9523,3.9553,3.9496,3.9486,3.9437,3.9416,3.945,3.9446,3.9307,3.9305,3.9303,3.9294,0,0,0,0,0,0,3.9708,3.9695,3.9677,3.9642,3.9629,3.9563,3.958,3.9575,3.9554,3.9555,3.9516,3.951,3.9496,3.9444,3.9433,3.941,3.9442,3.9309,3.9306,3.9303,3.9296,3.9292,3.9288,0,0,0,0,0,3.9712,3.9675,3.9676,3.9665,3.9606,3.9562,3.9554,3.9541,3.9553,3.9533,3.9513,3.9512,3.942,3.9439,3.9427,3.9402,3.931,3.9307,3.9303,3.9298,3.9293,3.9289,0,0,0,0,0,0,3.9704,3.967,3.9671,3.9622,3.9595,3.9562,3.9537,3.9536,3.9503,3.9505,3.9488,3.9479,3.9431,3.9411,3.9433,3.9351,3.9366,3.936,3.9366,3.9361,3.9357,3.9362,3.9439,0,0,0,0,0,3.9697,3.9667,3.9638,3.9597,3.9585,3.9563,3.9544,3.9536,3.9507,3.9495,3.9471,3.944,3.9405,3.9382,3.9347,3.9294,3.9285,3.9271,3.9267,3.9264,3.9259,3.923,3.9224,3.9291,3.9292,3.9292,0,0,3.9681,3.9659,3.9641,3.9595,3.9574,3.9541,3.9554,3.9518,3.9493,3.9488,3.9442,3.9423,3.9388,3.9338,3.9314,3.932,3.9239,3.926,3.9258,3.9255,3.9226,3.922,3.9214,3.9289,3.929,3.929,0,0,3.9637,3.9617,3.9582,3.9561,3.953,3.9516,3.9508,3.9475,3.9463,3.9417,3.9413,3.9382,3.9321,3.9297,3.9277,3.9225,3.9222,3.9213,3.9193,3.9165,3.9159,3.9155,3.9136,3.913,3.9209,3.9209,3.9209,0,3.962,3.9573,3.9563,3.9529,3.9509,3.9506,3.947,3.9449,3.9407,3.9392,3.94,3.9325,3.9301,3.9245,3.9233,3.9216,3.9205,3.9218,3.9162,3.9157,3.9152,3.9134,3.9127,3.9208,3.9208,3.9208,3.9208,0,3.9555,3.9522,3.9497,3.9461,3.9437,3.9402,3.9385,3.9362,3.9357,3.9342,3.9295,3.9267,3.9227,3.9213,3.9206,3.9156,3.9161,3.9166,3.918,3.9145,3.9128,3.9121,3.9207,3.9207,3.9207,3.9207,0,0,3.9502,3.9462,3.9453,3.9437,3.9403,3.9376,3.934,3.9304,3.9285,3.9256,3.9225,3.9175,3.918,3.9156,3.9147,3.9122,3.9084,3.913,3.9129,3.9122,3.9027,3.9024,3.9017,3.9082,3.9081,3.908,3.903,0,3.9453,3.9393,3.9383,3.9329,3.9299,3.9296,3.9265,3.924,3.9225,3.9196,3.9178,3.9143,3.9152,3.9138,3.9114,3.9094,3.9064,3.9097,3.9052,3.905,3.9061,3.9008,3.9004,3.8959,3.9023,3.9022,3.9021,0,3.9389,3.9362,3.9306,3.9278,3.9264,3.9237,3.9204,3.9176,3.9147,3.9138,3.9114,3.9107,3.9068,3.9085,3.9031,3.9054,3.9034,3.9022,3.9019,3.9014,3.9034,3.9001,3.8944,3.8937,3.9011,3.9012,3.9012,0,3.9356,3.9306,3.9266,3.9252,3.9218,3.9198,3.9183,3.9156,3.9135,3.9105,3.9092,3.9057,3.9037,3.901,3.8994,3.9007,3.8941,3.8956,3.8931,3.8932,3.8917,3.8918,3.8856,3.8904,3.8905,3.8905,3.8905,0,3.9303,3.9269,3.9251,3.9227,3.9188,3.9177,3.9138,3.9122,3.9098,3.9069,3.9064,3.9037,3.9018,3.8987,3.8974,3.8931,3.8922,3.8913,3.891,3.8913,3.8915,3.89,3.8903,3.8903,3.8903,3.8904,3.8904,0,3.926,3.9247,3.9204,3.9176,3.9169,3.9141,3.9117,3.9092,3.9078,3.9042,3.9032,3.9009,3.8973,3.8955,3.8909,3.89,3.8852,3.8851,3.8863,3.8862,3.8838,3.8841,3.8765,3.8754,3.881,3.8809,3.8809,0,3.9228,3.9202,3.9172,3.9154,3.9139,3.9109,3.909,3.9077,3.9056,3.9023,3.9002,3.8966,3.8937,3.8879,3.8857,3.8822,3.882,3.8795,3.8814,3.8819,3.882,3.8822,3.8819,3.8792,3.8791,3.8791,3.879,0,3.9171,3.9166,3.9139,3.911,3.9087,3.9063,3.9039,3.9023,3.9007,3.8983,3.8948,3.8926,3.8881,3.8845,3.8809,3.879,3.8787,3.8785,3.8778,3.8781,3.8789,3.8785,3.8854,3.8787,3.8787,3.8787,3.8787,3.8788,3.9132,3.9109,3.9086,3.9056,3.9038,3.9016,3.8992,3.8976,3.8948,3.8912,3.8906,3.8868,3.884,3.8792,3.8773,3.8742,3.8747,3.8736,3.8733,3.8731,3.873,3.8795,3.8735,3.8735,3.8735,3.8735,3.8735,0,3.9075,3.9061,3.9034,3.9002,3.8979,3.8981,3.8955,3.8934,3.8902,3.8878,3.885,3.881,3.8776,3.8752,3.8717,3.8697,3.8695,3.8688,3.869,3.8685,3.8727,3.8738,3.8691,3.8691,3.8691,3.8691,3.8691,3.8691,3.9043,3.9006,3.8999,3.8952,3.8937,3.8902,3.8887,3.8867,3.8847,3.8804,3.8777,3.8763,3.8738,3.8702,3.867,3.8664,3.8651,3.8645,3.8638,3.8678,3.8682,3.8687,3.8697,3.8642,3.8642,3.8599,3.8599,3.8599]}]]